* Astronomy

Members Login
Username 
 
Password 
    Remember Me  
Post Info TOPIC: Asteroid 2003 LX5


L

Posts: 131433
Date:
Asteroid 2003 LX5
Permalink  
 


Orbital elements:
2003 LX5                                                 Earth MOID = 0.2795 AU
Epoch 2012 Mar. 14.0 TT = JDT 2456000.5                 MPC
M 333.06745              (2000.0)            P               Q
n   0.21193457     Peri.  148.86084     -0.99138576     +0.13024963
a   2.7861309      Node    38.63068     -0.12424424     -0.90199802
e   0.5413902      Incl.    1.26286     -0.04144451     -0.41162434
P   4.65           H   17.3           G   0.15           U   3

MPEC 2011 - Y27



__________________
Page 1 of 1  sorted by
 
Quick Reply

Please log in to post quick replies.



Create your own FREE Forum
Report Abuse
Powered by ActiveBoard